Regional Weather Roundup
Issued by NWS Green Bay, WI

Home | Current Version | Previous Version | Text Only | Print | Product List | Glossary On
Versions: 1 2 3 4 5 6 7 8 9 10 11 12 13 14 15 16 17 18 19 20 21 22 23 24 25 26 27 28 29 30 31 32 33 34 35 36 37 38 39 40 41 42 43 44 45 46 47 48 49 50
000
ASUS43 KGRB 220810
RWRGRB

NORTH-CENTRAL AND NORTHEAST WISCONSIN REGIONAL WEATHER ROUNDUP
NATIONAL WEATHER SERVICE GREEN BAY WI
300 AM CDT TUE JUL 22 2014

WIZ005-009-010>012-018-019-220900-
NORTH CENTRAL WISCONSIN

CITY           SKY/WX    TMP DP  RH WIND       PRES   REMARKS
IRONWOOD       CLOUDY    75  68  78 S10G17    29.82F
MANITOWISH WTR CLOUDY    73  68  85 S9        29.90R
ARBOR VITAE    CLOUDY    74  69  82 S10G17    29.91S
EAGLE RIVER    MOCLDY    72  65  77 S7        29.90F
LAND O LAKES   MOCLDY    73  66  80 S9        29.89F
RHINELANDER    MOCLDY    73  67  81 S8        29.92F
PHILLIPS       CLOUDY    73  69  86 S5        29.88F
ANTIGO         MOCLDY    70  67  91 S10       29.95F
TOMAHAWK       MOCLDY    72  66  82 S5        29.91F
MERRILL        MOCLDY    74  69  84 S9        29.90F
$$

WIZ013-073-220900-
NORTHEAST WISCONSIN

CITY           SKY/WX    TMP DP  RH WIND       PRES   REMARKS
IRON MOUNTAIN  PTCLDY    68  65  90 SE6       29.92F FOG
MARINETTE      CLEAR     72  64  78 SW9       29.93F
OCONTO         CLEAR     71  68  89 S3        29.94S
$$

WIZ017-030-035>037-045-220900-
CENTRAL WISCONSIN

CITY           SKY/WX    TMP DP  RH WIND       PRES   REMARKS
MEDFORD        CLOUDY    72  67  85 S10G16    29.90F
WAUSAU         MOCLDY    74  68  81 S10       29.91F
MOSINEE        PTCLDY    70  68  94 S10       29.94F
MARSHFIELD     MOCLDY    73  68  84 S10       29.92F
WISC RAPIDS    PTCLDY    75  68  78 S8        29.95F
STEVENS POINT  PTCLDY    71  66  85 S10       29.95F
WAUPACA        CLEAR     74  69  86 S7        29.96R
SHAWANO        PTCLDY    74  68  81 S5        29.95R
CLINTONVILLE   CLEAR     72  68  88 S7        29.95R
$$

WIZ038-039-048-051-220900-
FOX VALLEY

CITY           SKY/WX    TMP DP  RH WIND       PRES   REMARKS
NWS GREEN BAY  CLEAR     71  66  84 S8        29.96F
APPLETON       CLEAR     72  64  78 S12       29.97S
OSHKOSH        PTCLDY    73  68  84 S13       29.96F
FOND DU LAC    CLEAR     74  66  76 S14       29.98F
$$

WIZ022-050-052-220900-
EAST CENTRAL WISCONSIN

CITY           SKY/WX    TMP DP  RH WIND       PRES   REMARKS
STURGEON BAY   CLEAR     68  63  83 S9        29.97F
MANITOWOC      CLEAR     65  62  90 S6        29.98F
SHEBOYGAN      CLEAR     71  66  84 S14       29.99F
$$

LMZ563-521-522-541>543-220900-
LAKESHORE

STATION/POSITION TIME  TEMP    WIND        PRES    VSBY  WAVE
                       AIR SEA DIR/SP/G                  HT/PER
                 (UTC) (F)     (DEG/KT/KT) (MB)    (MI)  (FT/S)
SHEBOYGAN LKSHOR 0800   68     190/ 13/ 14 1015.4F
KEWAUNEE LKSHORE 0800   57     180/  7/  8 1015.7S
NORTHPORT PIER   0800   65     150/  5/  8 1014.6R
N MID LAKE BUOY  0800   62 56  200/ 12/ 14 1014.2F         2/ 4
CHAMBERS ISLAND  0800   71     160/  7/ 12 1013.9F
MENOMINEE LKSHOR 0800   71     180/  9/ 12 1014.5S
$$



USA.gov is the U.S. government's official web portal to all federal, state and local government web resources and services.